Back to catalog

STARLINK-31454

AliveCommunicationsVLEO
NORAD 59014·PAYLOAD·🇺🇸 United States

Launched Feb 23, 2024 from Vandenberg Space Force Base

Loading…

Next Passes (next 24 hours)

TLE

FreshSource: CelesTrak SupGP

Epoch: Sep 14, 2026, 14:33 UTC

1 59014C 24036S   26257.60673611  .00005177  00000+0  16653-3 0  2576
2 59014  53.1560 280.3499 0001123  78.4780 193.9126 15.31689440    10

Track STARLINK-31454 in real time with AllMySat

Download on the App Store